This is the latest recevied weather packets stored in our database for station/object VK4CWL-13. If no packets are shown the sender has not sent any weather packets the latest 10 day(s).
| Time | Temp. | Humidity | Pressure | Rain* | Wind** | Luminosity | Snow |
|---|---|---|---|---|---|---|---|
| 1788560061 | 20° C | 56% | 1022.1 hPa | 0 mm | - | - | - |
| 1788559759 | 19.44° C | 57% | 1022.1 hPa | 0 mm | - | - | - |
| 1788559471 | 18.89° C | 58% | 1022.1 hPa | 0 mm | - | - | - |
| 1788559154 | 18.33° C | 59% | 1022.1 hPa | 0 mm | - | - | - |
| 1788558852 | 18.33° C | 60% | 1022.1 hPa | 0 mm | - | - | - |
| 1788558550 | 17.78° C | 61% | 1022.1 hPa | 0 mm | - | - | - |
| 1788558247 | 17.22° C | 62% | 1022.2 hPa | 0 mm | - | - | - |
| 1788557944 | 17.22° C | 63% | 1022.1 hPa | 0 mm | - | - | - |
| 1788557642 | 16.67° C | 64% | 1022 hPa | 0 mm | - | - | - |
| 1788557340 | 16.11° C | 65% | 1022 hPa | 0 mm | - | - | - |
| 1788557038 | 15.56° C | 66% | 1022 hPa | 0 mm | - | - | - |
| 1788556736 | 15° C | 67% | 1022 hPa | 0 mm | - | - | - |
| 1788556434 | 14.44° C | 67% | 1021.9 hPa | 0 mm | - | - | - |
| 1788556131 | 14.44° C | 68% | 1021.8 hPa | 0 mm | - | - | - |
| 1788555829 | 13.89° C | 69% | 1021.8 hPa | 0 mm | - | - | - |
| 1788555527 | 13.33° C | 69% | 1021.7 hPa | 0 mm | - | - | - |
| 1788555224 | 12.78° C | 71% | 1021.6 hPa | 0 mm | - | - | - |
| 1788554922 | 12.22° C | 71% | 1021.6 hPa | 0 mm | - | - | - |
| 1788554621 | 11.67° C | 72% | 1021.5 hPa | 0 mm | - | - | - |
| 1788554317 | 11.11° C | 69% | 1021.3 hPa | 0 mm | - | - | - |
| 1788554015 | 11.11° C | 67% | 1021 hPa | 0 mm | - | - | - |
| 1788553713 | 11.11° C | 65% | 1020.9 hPa | 0 mm | - | - | - |
| 1788553411 | 11.11° C | 64% | 1020.8 hPa | 0 mm | - | - | - |
| 1788553108 | 11.11° C | 64% | 1020.7 hPa | 0 mm | - | - | - |
| 1788552504 | 11.11° C | 64% | 1020.6 hPa | 0 mm | - | - | - |
* Rain since midnight (hover to see other rain measurements)
** Current wind speed in m/s (hover to see current wind gust speed)